[[{"header":{"parameterUnit":"m.s-1","parameterCategory":1,"la1":30.2991,"la2":30.254,"lo1":-89.0895,"lo2":-89.0444,"dy":0.0017,"dx":0.0017,"nx":28,"ny":28,"refTime":"2023-10-03T09:00:00:Z","depth":0,"parameterNumber":2,"parameterNumberName":"U-component_of_WINDS"},"data":[0,0,0,0,0,0,0,0,0,0,0,0,0,0,0,0,0,0,0,0,0,0,0,0,0,0,0,0,0,0,0,0,0,0,0,0,0,0,0,0,0,0,0,0,0,0,0,0,0,0,0,0,0,0,0,0,0,0,-3.8358,-3.8358,0,-3.8354,-3.8354,-3.8354,-3.8248,-3.8246,-3.8243,-3.824,-3.8236,-3.8238,-3.824,0,0,0,0,0,0,0,0,0,0,0,0,0,-3.8275,-3.8277,-3.8358,-3.8358,-3.8358,-3.8354,-3.8354,-3.8354,-3.8249,-3.8245,-3.8242,-3.8239,-3.8235,-3.8238,-3.8241,0,0,0,0,0,0,0,0,0,0,0,0,0,-3.8295,-3.8278,-3.8358,-3.8305,-3.83,-3.8354,-3.8354,-3.8354,-3.8249,-3.8245,-3.8241,-3.8237,-3.8234,-3.8237,-3.8241,-3.8345,0,0,-3.8252,-3.8254,0,0,0,0,0,0,0,0,-3.8294,-3.8298,-3.8313,-3.8309,-3.8303,-3.8297,-3.8323,-3.8351,-3.825,-3.8269,-3.824,-3.8236,-3.8259,-3.8261,-3.8269,-3.8345,-3.8344,-3.8252,-3.8254,-3.8256,-3.8257,0,0,0,0,0,0,0,-3.8293,-3.8298,-3.8356,-3.8313,-3.8307,-3.8281,-3.828,-3.8327,-3.8287,-3.8267,-3.8259,-3.826,-3.8256,-3.8266,-3.8268,-3.8344,-3.8252,-3.8255,-3.8258,-3.8259,-3.8505,-3.8509,0,0,0,0,0,0,-3.8299,-3.8297,-3.8356,-3.8356,-3.8289,-3.8286,-3.8284,-3.8303,-3.8286,-3.828,-3.8264,-3.8255,-3.8261,-3.8264,-3.8267,-3.8386,-3.8256,-3.8259,-3.8261,-3.85,-3.8506,-3.851,0,0,0,0,0,0,-3.8297,-3.8305,-3.8356,-3.8325,-3.8329,-3.8292,-3.8314,-3.8306,-3.8315,-3.8284,-3.8276,-3.8281,-3.8258,-3.8262,-3.8326,-3.8385,-3.8261,-3.8264,-3.8495,-3.8502,-3.8508,-3.8627,0,0,0,0,0,0,-3.8295,-3.8305,-3.8344,-3.8326,-3.8331,-3.8416,-3.8318,-3.8308,-3.8321,-3.831,-3.8298,-3.8292,-3.8255,-3.8321,-3.833,-3.8388,-3.8267,-3.849,-3.8498,-3.8506,-3.8617,-3.8636,-3.8653,0,0,0,0,0,-3.8293,-3.8377,-3.8346,-3.8354,-3.8379,-3.8419,-3.8422,-3.8378,-3.8327,-3.8365,-3.8345,-3.8292,-3.8378,-3.8329,-3.8337,-3.8397,-3.8486,-3.8496,-3.8505,-3.8609,-3.8633,-3.8652,0,0,0,0,0,0,-3.8402,-3.8374,-3.8339,-3.8421,-3.8423,-3.8401,-3.8448,-3.8405,-3.8422,-3.8411,-3.8356,-3.8354,-3.8427,-3.8419,-3.8364,-3.8497,-3.8422,-3.8435,-3.8499,-3.8521,-3.8538,-3.8537,-3.827,0,0,0,0,0,-3.8436,-3.8471,-3.8445,-3.8519,-3.8522,-3.8486,-3.8501,-3.8468,-3.8468,-3.8469,-3.8453,-3.8456,-3.8483,-3.8502,-3.8525,-3.8617,-3.8612,-3.8663,-3.868,-3.8695,-3.8705,-3.8752,-3.8774,-3.8543,-3.8542,-3.8542,0,0,-3.8505,-3.8495,-3.852,-3.8541,-3.8539,-3.8576,-3.8487,-3.853,-3.8557,-3.8475,-3.8534,-3.8524,-3.8522,-3.8601,-3.8634,-3.8596,-3.8769,-3.8708,-3.872,-3.8721,-3.8765,-3.8786,-3.8806,-3.8549,-3.8548,-3.8547,0,0,-3.8651,-3.8647,-3.8708,-3.8708,-3.8706,-3.8682,-3.8697,-3.8682,-3.8672,-3.8731,-3.867,-3.8702,-3.875,-3.8752,-3.8759,-3.8908,-3.8859,-3.8917,-3.9009,-3.9055,-3.9073,-3.9089,-3.9141,-3.916,-3.8928,-3.8928,-3.8928,0,-3.8737,-3.879,-3.8745,-3.8792,-3.8803,-3.8732,-3.8793,-3.8796,-3.8802,-3.8811,-3.8769,-3.8828,-3.8823,-3.89,-3.8936,-3.8945,-3.896,-3.8916,-3.9075,-3.909,-3.9104,-3.9152,-3.9172,-3.8935,-3.8934,-3.8934,-3.8933,0,-3.8896,-3.8934,-3.8984,-3.8992,-3.9009,-3.9063,-3.9026,-3.9048,-3.9015,-3.8995,-3.9056,-3.9047,-3.9067,-3.9084,-3.9051,-3.9157,-3.9133,-3.9084,-3.9008,-3.9134,-3.9178,-3.9197,-3.8945,-3.8942,-3.894,-3.8939,0,0,-3.9106,-3.909,-3.9109,-3.9112,-3.9106,-3.9134,-3.9186,-3.9207,-3.9226,-3.9234,-3.9275,-3.9319,-3.9274,-3.9282,-3.925,-3.9291,-3.9408,-3.9236,-3.9236,-3.9267,-3.9522,-3.9557,-3.9579,-3.9377,-3.938,-3.9383,-3.9521,0,-3.9245,-3.9331,-3.9293,-3.9383,-3.9417,-3.9352,-3.9397,-3.9398,-3.9382,-3.9409,-3.9391,-3.9422,-3.9361,-3.9365,-3.9404,-3.9385,-3.9458,-3.9375,-3.9413,-3.9415,-3.9412,-3.9602,-3.9639,-3.977,-3.9538,-3.9541,-3.9544,0,-3.9417,-3.9432,-3.9526,-3.9515,-3.9528,-3.9569,-3.9584,-3.9611,-3.9612,-3.9597,-3.9608,-3.9566,-3.9616,-3.9543,-3.9611,-3.9555,-3.9569,-3.9563,-3.9567,-3.9566,-3.9485,-3.9605,-3.9811,-3.983,-3.9571,-3.9569,-3.9567,0,-3.9559,-3.9603,-3.9665,-3.967,-3.9658,-3.9688,-3.9685,-3.9682,-3.9697,-3.9711,-3.972,-3.974,-3.9751,-3.9768,-3.9733,-3.9683,-3.9805,-3.9729,-3.9793,-3.9794,-3.9818,-3.9817,-4.0027,-3.9833,-3.9832,-3.9832,-3.9831,0,-3.9716,-3.9776,-3.9728,-3.9766,-3.9831,-3.9787,-3.9852,-3.9842,-3.984,-3.9874,-3.982,-3.9854,-3.9807,-3.9836,-3.981,-3.9869,-3.9874,-3.9863,-3.9855,-3.9867,-3.9868,-3.9872,-3.9861,-3.9837,-3.9836,-3.9835,-3.9834,0,-3.9884,-3.9855,-3.9917,-3.9902,-3.99,-3.9948,-3.9935,-3.9969,-3.995,-3.9994,-4.0002,-3.9972,-4.0004,-3.9972,-4.0001,-3.9983,-4.0062,-4.0042,-4.0062,-4.0055,-4.012,-4.0113,-4.0339,-4.0365,-4.0156,-4.0158,-4.016,0,-3.9984,-4.0028,-4.0018,-4.0038,-4.0038,-4.007,-4.0085,-4.0044,-4.0062,-4.0067,-4.0101,-4.0128,-4.0147,-4.0201,-4.0182,-4.0204,-4.0183,-4.026,-4.0185,-4.0196,-4.0181,-4.0178,-4.0182,-4.0274,-4.0277,-4.0279,-4.0281,0,-4.0165,-4.0149,-4.0173,-4.0193,-4.0213,-4.0226,-4.0235,-4.0255,-4.0212,-4.0236,-4.0267,-4.0283,-4.0313,-4.0341,-4.0358,-4.0354,-4.031,-4.0305,-4.032,-4.0331,-4.034,-4.0334,-4.0101,-4.0299,-4.0297,-4.0296,-4.0295,-4.0294,-4.0301,-4.0337,-4.0336,-4.0364,-4.0368,-4.0378,-4.0409,-4.0395,-4.0421,-4.0442,-4.0417,-4.0456,-4.0456,-4.0475,-4.0477,-4.0506,-4.0473,-4.0497,-4.0502,-4.0508,-4.0516,-4.0338,-4.051,-4.0509,-4.0509,-4.0508,-4.0508,0,-4.0477,-4.0474,-4.0501,-4.0516,-4.0539,-4.0497,-4.0506,-4.0527,-4.0562,-4.0567,-4.0587,-4.0624,-4.0651,-4.0635,-4.0658,-4.0685,-4.0665,-4.0692,-4.0688,-4.0688,-4.0545,-4.0528,-4.0707,-4.0707,-4.0707,-4.0707,-4.0707,-4.0707,-4.0572,-4.063,-4.0615,-4.0674,-4.067,-4.0708,-4.0716,-4.0726,-4.0729,-4.0772,-4.0794,-4.0784,-4.078,-4.0803,-4.0826,-4.082,-4.083,-4.0864,-4.0851,-4.0718,-4.0698,-4.0679,-4.0663,-4.0867,-4.0867,-4.0991,-4.0992,-4.0993]},{"header":{"parameterUnit":"m.s-1","parameterCategory":1,"la1":30.2991,"la2":30.254,"lo1":-89.0895,"lo2":-89.0444,"dy":0.0017,"dx":0.0017,"nx":28,"ny":28,"refTime":"2023-10-03T09:00:00:Z","depth":0,"parameterNumber":3,"parameterNumberName":"V-component_of_WINDS"},"data":[0,0,0,0,0,0,0,0,0,0,0,0,0,0,0,0,0,0,0,0,0,0,0,0,0,0,0,0,0,0,0,0,0,0,0,0,0,0,0,0,0,0,0,0,0,0,0,0,0,0,0,0,0,0,0,0,0,0,2.37,2.37,0,2.3724,2.3724,2.3725,2.3749,2.3749,2.375,2.375,2.3772,2.3772,2.3773,0,0,0,0,0,0,0,0,0,0,0,0,0,2.3672,2.3673,2.37,2.37,2.37,2.3724,2.3724,2.3725,2.3749,2.3749,2.375,2.375,2.3772,2.3772,2.3773,0,0,0,0,0,0,0,0,0,0,0,0,0,2.3689,2.3673,2.37,2.3715,2.3717,2.3724,2.3724,2.3725,2.3749,2.3749,2.375,2.375,2.3772,2.3772,2.3773,2.3765,0,0,2.3774,2.3774,0,0,0,0,0,0,0,0,2.3688,2.369,2.3713,2.3714,2.3716,2.3734,2.3723,2.3738,2.3749,2.3737,2.375,2.375,2.3759,2.376,2.3764,2.3766,2.3767,2.3774,2.3774,2.3774,2.3775,0,0,0,0,0,0,0,2.3687,2.3689,2.3709,2.3713,2.3715,2.372,2.3723,2.3726,2.3745,2.3738,2.374,2.3742,2.376,2.3763,2.3764,2.3768,2.3774,2.3774,2.3775,2.3775,2.3766,2.3765,0,0,0,0,0,0,2.3684,2.3688,2.3709,2.371,2.3703,2.3721,2.3724,2.3728,2.3745,2.3748,2.3742,2.3743,2.3762,2.3764,2.3765,2.3758,2.3774,2.3775,2.3775,2.3766,2.3766,2.3765,0,0,0,0,0,0,2.3683,2.3685,2.3708,2.37,2.3703,2.3721,2.3725,2.3728,2.3731,2.3748,2.3751,2.3742,2.3763,2.3765,2.3765,2.3759,2.3775,2.3775,2.3767,2.3766,2.3765,2.3743,0,0,0,0,0,0,2.3682,2.3685,2.3683,2.3699,2.3703,2.3708,2.3724,2.3728,2.3732,2.3735,2.3749,2.3752,2.3763,2.3765,2.3766,2.376,2.3776,2.3768,2.3767,2.3766,2.3744,2.3741,2.3739,0,0,0,0,0,2.3681,2.3675,2.3682,2.3685,2.3701,2.3707,2.3709,2.3724,2.3732,2.3729,2.374,2.3751,2.376,2.3765,2.3766,2.376,2.3768,2.3767,2.3766,2.3745,2.3742,2.3739,0,0,0,0,0,0,2.3655,2.3677,2.3686,2.3685,2.3694,2.3711,2.3709,2.372,2.3726,2.3728,2.3745,2.3748,2.3746,2.3753,2.3758,2.3754,2.3765,2.3765,2.3749,2.3746,2.3744,2.3741,2.3776,0,0,0,0,0,2.365,2.3654,2.3672,2.367,2.3674,2.3691,2.3694,2.3705,2.3714,2.3718,2.3729,2.3737,2.3742,2.3745,2.375,2.3746,2.3749,2.3742,2.374,2.3737,2.3736,2.3734,2.3732,2.3762,2.3762,2.3762,0,0,2.3638,2.365,2.3651,2.3665,2.3673,2.3677,2.3694,2.3696,2.3699,2.3718,2.372,2.3728,2.3739,2.3737,2.3737,2.3743,2.3729,2.3736,2.3734,2.3734,2.3733,2.373,2.3728,2.3761,2.3761,2.3761,0,0,2.3618,2.3628,2.3627,2.3635,2.3648,2.366,2.3659,2.3675,2.3682,2.3684,2.3699,2.3702,2.3709,2.3716,2.3721,2.3705,2.3715,2.3706,2.3692,2.369,2.3688,2.3686,2.3679,2.3677,2.3705,2.3705,2.3705,0,2.3601,2.3607,2.3624,2.3627,2.3632,2.3651,2.365,2.3657,2.3671,2.3674,2.3681,2.3691,2.37,2.37,2.3696,2.3699,2.3699,2.3704,2.3687,2.3685,2.3683,2.3678,2.3675,2.3704,2.3704,2.3704,2.3704,0,2.3586,2.359,2.3587,2.3602,2.3607,2.3607,2.3624,2.3627,2.3637,2.3648,2.3649,2.3661,2.3668,2.3669,2.3679,2.3671,2.3674,2.3684,2.3695,2.3679,2.3674,2.3672,2.3702,2.3702,2.3703,2.3703,0,0,2.3548,2.3573,2.3572,2.3579,2.3596,2.3599,2.36,2.3609,2.3611,2.362,2.3621,2.3628,2.3637,2.3642,2.3653,2.3651,2.3637,2.3661,2.3662,2.3656,2.3629,2.3621,2.3618,2.3645,2.3645,2.3644,2.3628,0,2.3531,2.3535,2.3551,2.355,2.3555,2.3574,2.3575,2.3584,2.3594,2.3599,2.361,2.3614,2.3626,2.3629,2.3629,2.3639,2.3632,2.3641,2.3645,2.3645,2.3641,2.3616,2.3607,2.3591,2.3626,2.3626,2.3625,0,2.351,2.3519,2.3519,2.3537,2.3539,2.354,2.3549,2.3554,2.3565,2.3572,2.3579,2.3591,2.3593,2.3605,2.3607,2.3613,2.3616,2.3621,2.3621,2.3621,2.3633,2.3614,2.3586,2.3583,2.3622,2.3623,2.3623,0,2.3483,2.3495,2.3497,2.3502,2.3522,2.3522,2.353,2.3543,2.3547,2.3555,2.3558,2.3566,2.357,2.3576,2.359,2.3597,2.3591,2.3603,2.3596,2.3596,2.3593,2.3593,2.3564,2.3596,2.3596,2.3596,2.3596,0,2.3461,2.346,2.3485,2.3486,2.3485,2.3504,2.3502,2.3512,2.3523,2.3526,2.3543,2.3544,2.3563,2.3567,2.3578,2.3578,2.358,2.3586,2.3588,2.3584,2.3583,2.3585,2.3586,2.3595,2.3596,2.3596,2.3596,0,2.3429,2.3446,2.3449,2.3469,2.3474,2.3472,2.3488,2.349,2.3501,2.3504,2.3506,2.3524,2.3529,2.3544,2.3553,2.3561,2.3557,2.3563,2.3554,2.3555,2.3547,2.3547,2.3518,2.3514,2.3549,2.3549,2.3548,0,2.3414,2.3414,2.3434,2.3437,2.3445,2.345,2.3456,2.3474,2.3478,2.3492,2.3491,2.3499,2.3505,2.3513,2.3526,2.3533,2.3539,2.3528,2.354,2.3535,2.3538,2.3537,2.3537,2.3525,2.3525,2.3524,2.3524,0,2.3384,2.3393,2.34,2.341,2.3416,2.3425,2.3435,2.3436,2.3457,2.3461,2.3468,2.3473,2.3483,2.3489,2.3499,2.3506,2.3518,2.352,2.3519,2.3513,2.3508,2.351,2.3546,2.3521,2.3521,2.3521,2.3521,2.3521,2.336,2.3361,2.3375,2.3383,2.3392,2.3401,2.3403,2.3416,2.3422,2.3432,2.3443,2.3448,2.346,2.3474,2.3481,2.3484,2.3491,2.3489,2.3488,2.3487,2.3485,2.3508,2.3486,2.3486,2.3486,2.3487,2.3487,0,2.333,2.3341,2.3348,2.3362,2.3368,2.338,2.3392,2.3395,2.34,2.3411,2.3418,2.3425,2.3432,2.3446,2.3454,2.3454,2.346,2.3455,2.3455,2.3456,2.3479,2.3479,2.3451,2.3451,2.3451,2.3451,2.3451,2.3451,2.3316,2.3318,2.3329,2.3336,2.3347,2.3353,2.3358,2.3366,2.3375,2.3383,2.3389,2.3399,2.3411,2.342,2.3426,2.343,2.3432,2.3425,2.3431,2.3451,2.3455,2.3458,2.3458,2.3426,2.3426,2.3408,2.3408,2.3408]}]]